Volver al catálogo

PRAETORIAN SDA_616

ActivoMilitarPO
NORAD 65579·PAYLOAD·🇺🇸 United States

Lanzado Sep 10, 2025 desde Vandenberg Space Force Base

Loading…

Próximos Pases (próximas 24 horas)

TLE

ActualizadoSource: Space-Track

Época: Sep 14, 2026, 19:39 UTC

1 65579U 25203Q   26257.81941002  .00000188  00000-0  16075-3 0  9990
2 65579  81.3037 288.2339 0004796 329.1211  30.9662 13.83275633 51076

Sigue PRAETORIAN SDA_616 en tiempo real con AllMySat

Download on the App Store